This demonstration page uses our WeatherBlox Daily Observations layout. Learn more.

Left ArrowRight Arrow

Hourly Observations for July 24, 2022

Temp ( °F °C ) Dew Point ( °F °C ) Humidity (%) Winds ( mph kmh ) Pressure ( in mb ) Visibility ( mi km ) Precip ( " mm )
12:53 am 00:53 Clear 65 18.3 51 10.6 61 61 E 6 9 29.93 1014 10 16 0.00 0.00
1:53 am 01:53 Clear 60 15.6 51 10.6 72 72 Calm 29.95 1014 10 16 0.00 0.00
2:53 am 02:53 Clear 58 14.4 49 9.4 72 72 Calm 29.94 1014 10 16 0.00 0.00
3:53 am 03:53 Clear 59 15 51 10.6 75 75 Calm 29.93 1014 10 16 0.00 0.00
4:53 am 04:53 Clear 57 13.9 51 10.6 81 81 SSW 3 6 30.00 1016 10 16 0.00 0.00
5:53 am 05:53 Clear 64 17.8 51 10.6 63 63 Calm 29.96 1014 10 16 0.00 0.00
6:53 am 06:53 Cloudy with Light Rain 60 15.6 53 11.7 78 78 NW 14 22 30.01 1016 10 16 0.00 0.00
7:53 am 07:53 Mostly Cloudy 64 17.8 53 11.7 68 68 E 7 11 30.05 1018 10 16 0.00 0.00
8:53 am 08:53 Cloudy 67 19.4 53 11.7 61 61 N 3 6 30.06 1018 10 16 0.00 0.00
9:53 am 09:53 Cloudy 68 20 53 11.7 59 59 ESE 12 19 30.07 1018 10 16 0.00 0.00
10:53 am 10:53 Mostly Cloudy 73 22.8 52 11.1 48 48 E 10 17 30.06 1018 10 16 0.00 0.00
11:53 am 11:53 Cloudy 75 23.9 53 11.7 46 46 NE 7 11 30.06 1018 10 16 0.00 0.00
12:53 pm 12:53 Cloudy 73 22.8 53 11.7 50 50 N 6 9 30.08 1019 10 16 0.00 0.00
1:53 pm 13:53 Cloudy with Rain 63 17.2 54 12.2 73 73 E 8 13 30.16 1021 5 8 0.04 1.02
2:44 pm 14:44 Cloudy with Rain 61 16.1 56 13.3 84 84 E 6 9 30.04 1017 4 6 0.00 0.00
2:53 pm 14:53 Cloudy with Light Rain 62 16.7 56 13.3 80 80 ENE 8 13 30.20 1023 5 8 0.00 0.00
3:53 pm 15:53 Cloudy with Light Rain 62 16.7 57 13.9 84 84 E 8 13 30.17 1022 10 16 0.00 0.00
4:53 pm 16:53 Cloudy 62 16.7 55 12.8 78 78 SE 8 13 30.16 1021 10 16 0.00 0.00
5:53 pm 17:53 Cloudy 63 17.2 55 12.8 76 76 SSE 6 9 30.12 1020 10 16 0.00 0.00
6:53 pm 18:53 Cloudy 63 17.2 56 13.3 78 78 E 3 6 30.11 1020 10 16 0.00 0.00
7:53 pm 19:53 Mostly Cloudy 63 17.2 57 13.9 81 81 ENE 7 11 30.05 1018 10 16 0.00 0.00
8:53 pm 20:53 Clear 60 15.6 55 12.8 84 84 NE 9 15 30.04 1017 10 16 0.00 0.00
9:53 pm 21:53 Clear 55 12.8 52 11.1 90 90 S 3 6 30.09 1019 10 16 0.00 0.00
10:53 pm 22:53 Clear 55 12.8 53 11.7 93 93 NNW 5 7 30.07 1018 10 16 0.00 0.00
11:53 pm 23:53 Clear 52 11.1 51 10.6 97 97 ESE 3 6 30.07 1018 10 16 0.00 0.00

Powered by AerisWeather